EW5195 Weather Reports


Display with metric or nautical units.
time (UTC)temp
F
wind
direction
speed
MPH
gust
MPH
rain 1hr
in
rain 24hr
in
rain mn
in
humidity
%
barometer
mb
20260902215050 77 0 0.0 0.0 0.07 0.66 0.66 93 1018.8
20260902214609 77 0 0.0 0.0 0.17 0.66 0.66 93 1018.8
20260902214053 77 0 0.0 0.0 0.30 0.66 0.66 93 1018.8
20260902213552 77 0 0.0 0.0 0.32 0.66 0.66 93 1018.8
20260902213109 76 0 0.0 0.0 0.40 0.66 0.66 93 1018.8
20260902212548 76 0 0.0 0.0 0.66 0.66 0.66 93 1018.9
20260902212048 76 0 0.0 0.0 0.66 0.66 0.66 93 1018.6
20260902211609 75 0 0.0 0.0 0.66 0.66 0.66 93 1018.9
20260902211051 75 0 0.0 0.0 0.66 0.66 0.66 92 1019.2
20260902210551 75 0 0.0 0.0 0.66 0.66 0.66 92 1019.1
20260902210110 75 0 0.0 0.0 0.62 0.62 0.62 92 1019.3
20260902205551 75 0 0.0 0.0 0.61 0.61 0.61 91 1019.7
20260902205050 75 0 0.0 0.0 0.58 0.58 0.58 91 1019.5
20260902204609 75 0 0.0 0.0 0.49 0.49 0.49 90 1019.4
20260902204055 76 0 0.0 0.0 0.36 0.36 0.36 88 1019.1
20260902203548 77 0 0.0 0.0 0.34 0.34 0.34 84 1018.2
20260902203134 82 0 0.0 0.0 0.25 0.25 0.25 78 1018.8
20260902202556 87 0 0.0 0.0 0.00 0.00 0.00 70 1018.7
20260902202052 90 0 0.0 0.0 0.00 0.00 0.00 72 1018.5
20260902201606 91 0 0.0 0.0 0.00 0.00 0.00 70 1018.2
20260902201051 91 0 0.0 0.0 0.00 0.00 0.00 69 1018.1
20260902200553 92 0 0.0 0.0 0.00 0.00 0.00 69 1018.1
20260902200108 92 0 0.0 0.0 0.00 0.00 0.00 67 1018.2
20260902195552 93 0 0.0 0.0 0.00 0.00 0.00 64 1018.2
20260902195051 94 0 0.0 0.0 0.00 0.00 0.00 61 1018.1
20260902194605 95 0 0.0 0.0 0.00 0.00 0.00 62 1018.0
20260902194050 95 0 0.0 0.0 0.00 0.00 0.00 63 1018.0
20260902193552 94 0 0.0 0.0 0.00 0.00 0.00 60 1018.0
20260902193105 95 0 0.0 0.0 0.00 0.00 0.00 62 1018.0
20260902192547 95 0 0.0 0.0 0.00 0.00 0.00 65 1018.0
20260902192051 94 0 0.0 0.0 0.00 0.00 0.00 62 1018.1
20260902191611 94 0 0.0 0.0 0.00 0.00 0.00 61 1018.2
20260902191050 94 0 0.0 0.0 0.00 0.00 0.00 64 1018.1
20260902190550 95 0 0.0 0.0 0.00 0.00 0.00 60 1018.3
20260902190109 95 0 0.0 0.0 0.00 0.00 0.00 62 1018.4
20260902185552 94 0 0.0 0.0 0.00 0.00 0.00 60 1018.4
20260902185051 94 0 0.0 0.0 0.00 0.00 0.00 62 1018.6
20260902184605 93 0 0.0 0.0 0.00 0.00 0.00 63 1018.6
20260902184048 94 0 0.0 0.0 0.00 0.00 0.00 60 1018.6
20260902183551 93 0 0.0 0.0 0.00 0.00 0.00 62 1018.6
20260902183116 94 0 0.0 0.0 0.00 0.00 0.00 62 1018.7
20260902182551 94 0 0.0 0.0 0.00 0.00 0.00 64 1018.6
20260902182054 94 0 0.0 0.0 0.00 0.00 0.00 64 1018.8
20260902181606 94 0 0.0 0.0 0.00 0.00 0.00 61 1018.9
20260902181050 94 0 0.0 0.0 0.00 0.00 0.00 60 1018.9
20260902180552 94 0 0.0 0.0 0.00 0.00 0.00 61 1018.8
20260902180105 93 0 0.0 0.0 0.00 0.00 0.00 62 1018.8
20260902175550 93 0 0.0 0.0 0.00 0.00 0.00 63 1018.8
20260902175054 92 0 0.0 0.0 0.00 0.00 0.00 62 1018.8
20260902174604 93 0 0.0 0.0 0.00 0.00 0.00 67 1018.7
20260902174054 93 0 0.0 0.0 0.00 0.00 0.00 62 1018.8
20260902173549 93 0 0.0 0.0 0.00 0.00 0.00 60 1018.8
20260902173111 93 0 0.0 0.0 0.00 0.00 0.00 65 1018.8
20260902172549 93 0 0.0 0.0 0.00 0.00 0.00 65 1018.8
20260902172051 92 0 0.0 0.0 0.00 0.00 0.00 64 1018.7
20260902171609 92 0 0.0 0.0 0.00 0.00 0.00 60 1018.8
20260902171051 92 0 0.0 0.0 0.00 0.00 0.00 62 1018.8
20260902170550 92 0 0.0 0.0 0.00 0.00 0.00 62 1018.9
20260902170108 92 0 0.0 0.0 0.00 0.00 0.00 63 1018.8
20260902165551 92 0 0.0 0.0 0.00 0.00 0.00 63 1018.9
20260902165054 92 0 0.0 0.0 0.00 0.00 0.00 62 1018.9
20260902164607 92 0 0.0 0.0 0.00 0.00 0.00 63 1018.9
20260902164049 92 0 0.0 0.0 0.00 0.00 0.00 63 1018.8
20260902163549 92 0 0.0 0.0 0.00 0.00 0.00 63 1018.9
20260902163106 91 0 0.0 0.0 0.00 0.00 0.00 62 1018.9
20260902162553 92 0 0.0 0.0 0.00 0.00 0.00 61 1019.1
20260902162050 92 0 0.0 0.0 0.00 0.00 0.00 65 1019.1
20260902161609 91 0 0.0 0.0 0.00 0.00 0.00 62 1019.1
20260902161051 91 0 0.0 0.0 0.00 0.00 0.00 64 1018.9
20260902160550 91 0 0.0 0.0 0.00 0.00 0.00 62 1019.1
20260902160106 91 0 0.0 0.0 0.00 0.00 0.00 64 1019.0
20260902155554 91 0 0.0 0.0 0.00 0.00 0.00 65 1018.9
20260902155048 90 0 0.0 0.0 0.00 0.00 0.00 63 1019.2
20260902154609 91 0 0.0 0.0 0.00 0.00 0.00 64 1019.2
20260902154048 91 0 0.0 0.0 0.00 0.00 0.00 64 1019.1
20260902153548 90 0 0.0 0.0 0.00 0.00 0.00 67 1019.3
20260902153104 90 0 0.0 0.0 0.00 0.00 0.00 64 1019.2
20260902152550 91 0 0.0 0.0 0.00 0.00 0.00 64 1019.4
20260902152050 91 0 0.0 0.0 0.00 0.00 0.00 68 1019.3
20260902151606 90 0 0.0 0.0 0.00 0.00 0.00 66 1019.4
20260902151051 90 0 0.0 0.0 0.00 0.00 0.00 66 1019.3
20260902150550 90 0 0.0 0.0 0.00 0.00 0.00 65 1019.4
20260902150117 90 0 0.0 0.0 0.00 0.00 0.00 66 1019.2
20260902145551 90 0 0.0 0.0 0.00 0.00 0.00 69 1019.3
20260902145051 89 0 0.0 0.0 0.00 0.00 0.00 69 1019.3
20260902144602 89 0 0.0 0.0 0.00 0.00 0.00 68 1019.4
20260902144051 89 0 0.0 0.0 0.00 0.00 0.00 72 1019.3
20260902143552 89 0 0.0 0.0 0.00 0.00 0.00 69 1019.3
20260902143104 88 0 0.0 0.0 0.00 0.00 0.00 72 1019.4
20260902142552 88 0 0.0 0.0 0.00 0.00 0.00 70 1019.4
20260902142052 88 0 0.0 0.0 0.00 0.00 0.00 70 1019.4
20260902141605 88 0 0.0 0.0 0.00 0.00 0.00 71 1019.2
20260902141052 88 0 0.0 0.0 0.00 0.00 0.00 71 1019.2
20260902140550 88 0 0.0 0.0 0.00 0.00 0.00 72 1019.2
20260902140109 88 0 0.0 0.0 0.00 0.00 0.00 73 1019.2
20260902135552 87 0 0.0 0.0 0.00 0.00 0.00 73 1019.2
20260902135052 87 0 0.0 0.0 0.00 0.00 0.00 75 1019.2
20260902134604 86 0 0.0 0.0 0.00 0.00 0.00 76 1018.9
20260902134051 86 0 0.0 0.0 0.00 0.00 0.00 75 1018.9
20260902133551 85 0 0.0 0.0 0.00 0.00 0.00 77 1018.8
20260902133102 85 0 0.0 0.0 0.00 0.00 0.00 77 1018.8
20260902132551 84 0 0.0 0.0 0.00 0.00 0.00 78 1018.8
20260902132050 84 0 0.0 0.0 0.00 0.00 0.00 80 1018.8
20260902131604 83 0 0.0 0.0 0.00 0.00 0.00 81 1018.7
20260902131054 82 0 0.0 0.0 0.00 0.00 0.00 82 1018.6
20260902130550 81 0 0.0 0.0 0.00 0.00 0.00 81 1018.8
20260902130105 81 0 0.0 0.0 0.00 0.00 0.00 82 1018.7
20260902125551 80 0 0.0 0.0 0.00 0.00 0.00 83 1018.7
20260902125051 80 0 0.0 0.0 0.00 0.00 0.00 85 1018.9
20260902124602 80 0 0.0 0.0 0.00 0.00 0.00 85 1018.7
20260902124050 80 0 0.0 0.0 0.00 0.00 0.00 84 1018.8
20260902123550 79 0 0.0 0.0 0.00 0.00 0.00 86 1018.9
20260902123107 78 0 0.0 0.0 0.00 0.00 0.00 85 1018.7
20260902122551 78 0 0.0 0.0 0.00 0.00 0.00 86 1018.7
20260902122053 78 0 0.0 0.0 0.00 0.00 0.00 87 1018.6
20260902121602 78 0 0.0 0.0 0.00 0.00 0.00 88 1018.6
20260902121050 78 0 0.0 0.0 0.00 0.00 0.00 88 1018.6
20260902120551 77 0 0.0 0.0 0.00 0.00 0.00 90 1018.5
20260902120108 76 0 0.0 0.0 0.00 0.00 0.00 90 1018.5
20260902115551 75 0 0.0 0.0 0.00 0.00 0.00 91 1018.5
20260902115052 75 0 0.0 0.0 0.00 0.00 0.00 91 1018.6
20260902114620 75 0 0.0 0.0 0.00 0.00 0.00 91 1018.6
20260902114051 74 0 0.0 0.0 0.00 0.00 0.00 91 1018.6
20260902113550 74 0 0.0 0.0 0.00 0.00 0.00 91 1018.6
20260902113108 74 0 0.0 0.0 0.00 0.00 0.00 90 1018.7
20260902112552 75 0 0.0 0.0 0.00 0.00 0.00 90 1018.6
20260902112050 75 0 0.0 0.0 0.00 0.00 0.00 90 1018.6
20260902111607 75 0 0.0 0.0 0.00 0.00 0.00 90 1018.5
20260902111051 75 0 0.0 0.0 0.00 0.00 0.00 89 1018.5
20260902110552 75 0 0.0 0.0 0.00 0.00 0.00 89 1018.4
20260902110101 75 0 0.0 0.0 0.00 0.00 0.00 89 1018.5
20260902105554 75 0 0.0 0.0 0.00 0.00 0.00 89 1018.4
20260902105051 75 0 0.0 0.0 0.00 0.00 0.00 89 1018.2
20260902104606 76 0 0.0 0.0 0.00 0.00 0.00 89 1018.2
20260902104050 76 0 0.0 0.0 0.00 0.00 0.00 89 1018.1
20260902103550 76 0 0.0 0.0 0.00 0.00 0.00 88 1018.1
20260902103119 76 0 0.0 0.0 0.00 0.00 0.00 87 1018.1
20260902102552 76 0 0.0 0.0 0.00 0.00 0.00 87 1018.0
20260902102051 76 0 0.0 0.0 0.00 0.00 0.00 87 1018.0
20260902101557 77 0 0.0 0.0 0.00 0.00 0.00 88 1017.9
20260902101051 77 0 0.0 0.0 0.00 0.00 0.00 87 1017.9
20260902100551 77 0 0.0 0.0 0.00 0.00 0.00 86 1017.8
20260902100126 77 0 0.0 0.0 0.00 0.00 0.00 85 1017.9
20260902095551 77 0 0.0 0.0 0.00 0.00 0.00 85 1017.8
20260902095051 78 0 0.0 0.0 0.00 0.00 0.00 84 1017.7
20260902094618 78 0 0.0 0.0 0.00 0.00 0.00 84 1017.7
20260902094051 79 0 0.0 0.0 0.00 0.00 0.00 84 1017.7
20260902093552 80 0 0.0 0.0 0.00 0.00 0.00 82 1017.7
20260902093122 80 0 0.0 0.0 0.00 0.00 0.00 79 1017.7
20260902092551 79 0 0.0 0.0 0.00 0.00 0.00 80 1017.7
20260902092051 79 0 0.0 0.0 0.00 0.00 0.00 81 1017.5
20260902091601 78 0 0.0 0.0 0.00 0.00 0.00 82 1017.6
20260902091051 77 0 0.0 0.0 0.00 0.00 0.00 84 1017.6
20260902090551 76 0 0.0 0.0 0.00 0.00 0.00 87 1017.6
20260902090104 75 0 0.0 0.0 0.00 0.00 0.00 89 1017.6
20260902085551 75 0 0.0 0.0 0.00 0.00 0.00 90 1017.6
20260902085053 75 0 0.0 0.0 0.00 0.00 0.00 91 1017.6
20260902084603 75 0 0.0 0.0 0.00 0.00 0.00 91 1017.6
20260902084054 73 0 0.0 0.0 0.00 0.00 0.00 92 1017.7
20260902083551 73 0 0.0 0.0 0.00 0.00 0.00 93 1017.5
20260902083103 73 0 0.0 0.0 0.00 0.00 0.00 93 1017.5
20260902082554 73 0 0.0 0.0 0.00 0.00 0.00 93 1017.4
20260902082051 73 0 0.0 0.0 0.00 0.00 0.00 92 1017.4
20260902081606 73 0 0.0 0.0 0.00 0.00 0.00 92 1017.4
20260902081052 73 0 0.0 0.0 0.00 0.00 0.00 92 1017.4
20260902080551 73 0 0.0 0.0 0.00 0.00 0.00 92 1017.4
20260902080109 73 0 0.0 0.0 0.00 0.00 0.00 92 1017.3
20260902075551 73 0 0.0 0.0 0.00 0.00 0.00 92 1017.4
20260902075051 73 0 0.0 0.0 0.00 0.00 0.00 92 1017.3
20260902074604 73 0 0.0 0.0 0.00 0.00 0.00 92 1017.4
20260902074052 73 0 0.0 0.0 0.00 0.00 0.00 92 1017.3
20260902073552 73 0 0.0 0.0 0.00 0.00 0.00 93 1017.3
20260902073121 73 0 0.0 0.0 0.00 0.00 0.00 93 1017.4
20260902072553 73 0 0.0 0.0 0.00 0.00 0.00 92 1017.3
20260902072051 73 0 0.0 0.0 0.00 0.00 0.00 92 1017.2
20260902071606 73 0 0.0 0.0 0.00 0.00 0.00 92 1017.3
20260902071051 73 0 0.0 0.0 0.00 0.00 0.00 92 1017.3
20260902070551 74 0 0.0 0.0 0.00 0.00 0.00 92 1017.4
20260902070108 74 0 0.0 0.0 0.00 0.00 0.00 92 1017.4
20260902065553 74 0 0.0 0.0 0.00 0.00 0.00 92 1017.5
20260902065052 74 0 0.0 0.0 0.00 0.00 0.00 92 1017.4
20260902064613 74 0 0.0 0.0 0.00 0.00 0.00 92 1017.4
20260902064051 74 0 0.0 0.0 0.00 0.00 0.00 91 1017.4
20260902063553 74 0 0.0 0.0 0.00 0.00 0.00 91 1017.1
20260902063102 74 0 0.0 0.0 0.00 0.00 0.00 91 1017.2
20260902062554 74 0 0.0 0.0 0.00 0.00 0.00 91 1017.2
20260902062051 74 0 0.0 0.0 0.00 0.00 0.00 91 1017.2
20260902061639 74 0 0.0 0.0 0.00 0.00 0.00 91 1017.2
20260902061052 74 0 0.0 0.0 0.00 0.00 0.00 91 1017.2
20260902060551 75 0 0.0 0.0 0.00 0.00 0.00 91 1017.2
20260902060104 75 0 0.0 0.0 0.00 0.00 0.00 91 1017.3
20260902055552 75 0 0.0 0.0 0.00 0.00 0.00 91 1017.3
20260902055052 75 0 0.0 0.0 0.00 0.00 0.00 91 1017.3
20260902054601 75 0 0.0 0.0 0.00 0.00 0.00 91 1017.2
20260902054051 75 0 0.0 0.0 0.00 0.00 0.00 91 1017.2
20260902053551 75 0 0.0 0.0 0.00 0.00 0.00 91 1017.3
20260902053110 75 0 0.0 0.0 0.00 0.00 0.00 91 1017.3
20260902052551 75 0 0.0 0.0 0.00 0.00 0.00 91 1017.3
20260902052054 75 0 0.0 0.0 0.00 0.00 0.00 91 1017.5
20260902051604 75 0 0.0 0.0 0.00 0.00 0.00 91 1017.3
20260902051052 75 0 0.0 0.0 0.00 0.00 0.00 91 1017.3
20260902050554 75 0 0.0 0.0 0.00 0.00 0.00 91 1017.3
20260902050109 75 0 0.0 0.0 0.00 0.00 0.00 91 1017.4
20260902045551 76 0 0.0 0.0 0.00 0.00 0.00 91 1017.5
20260902045051 76 0 0.0 0.0 0.00 0.00 0.00 91 1017.5
20260902044609 76 0 0.0 0.0 0.00 0.00 0.00 91 1017.4
20260902044053 76 0 0.0 0.0 0.00 0.00 0.00 91 1017.4
20260902043550 76 0 0.0 0.0 0.00 0.00 0.00 91 1017.3
20260902043105 76 0 0.0 0.0 0.00 0.00 0.00 91 1017.3
20260902042551 76 0 0.0 0.0 0.00 0.00 0.00 91 1017.2
20260902042051 76 0 0.0 0.0 0.00 0.00 0.00 91 1017.1
20260902041621 76 0 0.0 0.0 0.00 0.00 0.00 90 1017.1
20260902041052 76 0 0.0 0.0 0.00 0.00 0.00 90 1017.2
20260902040555 76 0 0.0 0.0 0.00 0.00 0.00 90 1017.1
20260902040107 76 0 0.0 0.0 0.00 0.00 0.00 90 1017.1
20260902035551 76 0 0.0 0.0 0.00 0.00 0.00 90 1017.1
20260902035051 76 0 0.0 0.0 0.00 0.00 0.00 90 1017.0
20260902034616 76 0 0.0 0.0 0.00 0.00 0.00 90 1017.1
20260902034050 76 0 0.0 0.0 0.00 0.00 0.00 89 1017.0
20260902033551 76 0 0.0 0.0 0.00 0.00 0.00 89 1016.8
20260902033100 76 0 0.0 0.0 0.00 0.00 0.00 89 1016.8
20260902032554 76 0 0.0 0.0 0.00 0.00 0.00 89 1016.8
20260902032051 76 0 0.0 0.0 0.00 0.00 0.00 89 1016.9
20260902031616 77 0 0.0 0.0 0.00 0.00 0.00 89 1017.0
20260902031051 77 0 0.0 0.0 0.00 0.00 0.00 89 1017.0
20260902030551 77 0 0.0 0.0 0.00 0.00 0.00 89 1017.0
20260902030105 77 0 0.0 0.0 0.00 0.00 0.00 89 1016.7
20260902025551 77 0 0.0 0.0 0.00 0.00 0.00 89 1016.9
20260902025052 77 0 0.0 0.0 0.00 0.00 0.00 89 1016.8
20260902024631 77 0 0.0 0.0 0.00 0.00 0.00 89 1016.8
20260902024051 77 0 0.0 0.0 0.00 0.00 0.00 89 1016.9
20260902023551 77 0 0.0 0.0 0.00 0.00 0.00 88 1016.8
20260902023107 77 0 0.0 0.0 0.00 0.00 0.00 89 1017.0
20260902022551 77 0 0.0 0.0 0.00 0.00 0.00 89 1017.1
20260902022050 78 0 0.0 0.0 0.00 0.00 0.00 89 1017.1
20260902021607 78 0 0.0 0.0 0.00 0.00 0.00 88 1016.9
20260902021050 78 0 0.0 0.0 0.00 0.00 0.00 89 1017.0
20260902020549 78 0 0.0 0.0 0.00 0.00 0.00 89 1017.0
20260902020108 78 0 0.0 0.0 0.00 0.00 0.00 88 1016.8
20260902015549 78 0 0.0 0.0 0.00 0.00 0.00 88 1016.7
20260902015053 78 0 0.0 0.0 0.00 0.00 0.00 88 1016.7
20260902014600 78 0 0.0 0.0 0.00 0.00 0.00 88 1016.6
20260902014051 79 0 0.0 0.0 0.00 0.00 0.00 87 1016.7
20260902013554 79 0 0.0 0.0 0.00 0.00 0.00 87 1016.5
20260902013059 79 0 0.0 0.0 0.00 0.00 0.00 87 1016.4
20260902012550 79 0 0.0 0.0 0.00 0.00 0.00 86 1016.3
20260902012051 79 0 0.0 0.0 0.00 0.00 0.00 86 1016.3
20260902011609 79 0 0.0 0.0 0.00 0.00 0.00 86 1016.2
20260902011051 79 0 0.0 0.0 0.00 0.00 0.00 87 1016.3
20260902010550 79 0 0.0 0.0 0.00 0.00 0.00 86 1016.2
20260902010107 79 0 0.0 0.0 0.00 0.00 0.00 86 1016.2
20260902005551 80 0 0.0 0.0 0.00 0.00 0.00 86 1016.1
20260902005052 80 0 0.0 0.0 0.00 0.00 0.00 87 1016.2
20260902004603 80 0 0.0 0.0 0.00 0.00 0.00 86 1016.2
20260902004052 80 0 0.0 0.0 0.00 0.00 0.00 86 1016.1
20260902003552 80 0 0.0 0.0 0.00 0.00 0.00 86 1016.0
20260902003106 80 0 0.0 0.0 0.00 0.00 0.00 85 1015.9
20260902002554 81 0 0.0 0.0 0.00 0.00 0.00 85 1015.9
20260902002051 81 0 0.0 0.0 0.00 0.00 0.00 85 1015.7
20260902001615 81 0 0.0 0.0 0.00 0.00 0.00 84 1015.7
20260902001049 82 0 0.0 0.0 0.00 0.00 0.00 84 1015.8
20260902000552 82 0 0.0 0.0 0.00 0.00 0.00 84 1015.6
20260902000107 82 0 0.0 0.0 0.00 0.00 0.00 83 1015.7
20260901235549 82 0 0.0 0.0 0.00 0.00 0.00 83 1015.6
20260901235052 83 0 0.0 0.0 0.00 0.00 0.00 83 1015.8
20260901234609 83 0 0.0 0.0 0.00 0.00 0.00 83 1015.8
20260901234049 83 0 0.0 0.0 0.00 0.00 0.00 82 1015.7
20260901233549 83 0 0.0 0.0 0.00 0.00 0.00 82 1015.9
20260901233110 84 0 0.0 0.0 0.00 0.00 0.00 82 1015.9
20260901232551 84 0 0.0 0.0 0.00 0.00 0.00 81 1016.0
20260901232051 84 0 0.0 0.0 0.00 0.00 0.00 81 1016.0
20260901231611 85 0 0.0 0.0 0.00 0.00 0.00 80 1016.1
20260901231049 85 0 0.0 0.0 0.00 0.00 0.00 80 1016.0
20260901230551 85 0 0.0 0.0 0.00 0.00 0.00 80 1016.0
20260901230123 86 0 0.0 0.0 0.00 0.00 0.00 79 1016.1
20260901225554 86 0 0.0 0.0 0.00 0.00 0.00 78 1016.1
20260901225049 86 0 0.0 0.0 0.00 0.00 0.00 78 1016.1
20260901224604 87 0 0.0 0.0 0.00 0.00 0.00 77 1016.2
20260901224053 87 0 0.0 0.0 0.00 0.00 0.00 73 1016.3
20260901223550 87 0 0.0 0.0 0.00 0.00 0.00 72 1016.3
20260901223115 88 0 0.0 0.0 0.00 0.00 0.00 72 1016.2
20260901222549 88 0 0.0 0.0 0.00 0.00 0.00 69 1016.3
20260901222052 88 0 0.0 0.0 0.00 0.00 0.00 70 1016.3
20260901221610 88 0 0.0 0.0 0.00 0.00 0.00 68 1016.2
20260901221052 89 0 0.0 0.0 0.00 0.00 0.00 68 1016.2
20260901220549 89 0 0.0 0.0 0.00 0.00 0.00 66 1016.3
20260901220112 89 0 0.0 0.0 0.00 0.00 0.00 66 1016.2
20260901215550 90 0 0.0 0.0 0.00 0.00 0.00 66 1016.0